Вернуться в каталог

FENGYUN 1C DEB

АктивенSSO
NORAD 31357·DEBRIS·🇨🇳 China

Запущен May 10, 1999 с Taiyuan Satellite Launch Center

Loading…

Ближайшие Пролёты (ближайшие 24 часа)

TLE

СвежийSource: Space-Track

Эпоха: Sep 14, 2026, 00:42 UTC

1 31357U 99025BRM 26257.02938955 -.00000030  00000-0  60113-5 0  9997
2 31357  98.5834 284.5525 0049263 217.1739 172.8220 14.18558159  5962

Отслеживайте FENGYUN 1C DEB в реальном времени с AllMySat

Download on the App Store